iso_date,epoch_date,Year,Hour,Min,DOY,POS_DOY,Lat,Lon,BP,Ts,Ta,has_bp,has_ts,has_ta,BuoyID,Buoy_Type,Buoy_Owner,Logistics,Hemisphere
2014-10-01T16:00:28Z,1412179229,2014,16,0,274.667,274.625,76.2838,37.705,1018.3,3.47,-999.0,yes,yes,no,300234061665210,SVP-B,EU,unknown,North
2014-10-01T16:59:31Z,1412182771,2014,17,0,274.708,274.625,76.2838,37.705,1018.2,3.43,-999.0,yes,yes,no,300234061665210,SVP-B,EU,unknown,North
2014-10-01T18:00:00Z,1412186400,2014,18,0,274.75,274.75,76.2856,37.8122,1018.0,3.41,-999.0,yes,yes,no,300234061665210,SVP-B,EU,unknown,North
2014-10-01T19:00:28Z,1412190029,2014,19,0,274.792,274.75,76.2856,37.8122,1017.8,3.39,-999.0,yes,yes,no,300234061665210,SVP-B,EU,unknown,North
2014-10-01T19:59:31Z,1412193571,2014,20,0,274.833,274.75,76.2856,37.8122,1017.6,3.48,-999.0,yes,yes,no,300234061665210,SVP-B,EU,unknown,North
2014-10-01T21:00:00Z,1412197200,2014,21,0,274.875,274.875,76.3032,37.8676,1017.4,3.57,-999.0,yes,yes,no,300234061665210,SVP-B,EU,unknown,North
2014-10-01T22:00:28Z,1412200829,2014,22,0,274.917,274.875,76.3032,37.8676,1017.0,3.57,-999.0,yes,yes,no,300234061665210,SVP-B,EU,unknown,North
2014-10-01T22:59:31Z,1412204371,2014,23,0,274.958,274.875,76.3032,37.8676,1016.6,3.61,-999.0,yes,yes,no,300234061665210,SVP-B,EU,unknown,North
2014-10-02T00:00:00Z,1412208000,2014,0,0,275.0,275.0,76.329,37.8704,1016.1,3.56,-999.0,yes,yes,no,300234061665210,SVP-B,EU,unknown,North
2014-10-02T01:00:28Z,1412211629,2014,1,0,275.042,275.0,76.329,37.8704,1015.6,3.56,-999.0,yes,yes,no,300234061665210,SVP-B,EU,unknown,North
2014-10-02T01:59:31Z,1412215171,2014,2,0,275.083,275.0,76.329,37.8704,1015.2,3.6,-999.0,yes,yes,no,300234061665210,SVP-B,EU,unknown,North
2014-10-02T03:00:00Z,1412218800,2014,3,0,275.125,275.125,76.3636,37.904,1015.0,3.57,-999.0,yes,yes,no,300234061665210,SVP-B,EU,unknown,North
2014-10-02T04:00:28Z,1412222429,2014,4,0,275.167,275.125,76.3636,37.904,1014.4,3.62,-999.0,yes,yes,no,300234061665210,SVP-B,EU,unknown,North
2014-10-02T04:59:31Z,1412225971,2014,5,0,275.208,275.125,76.3636,37.904,1013.9,3.65,-999.0,yes,yes,no,300234061665210,SVP-B,EU,unknown,North
2014-10-02T06:00:00Z,1412229600,2014,6,0,275.25,275.25,76.4002,37.967,1013.4,3.62,-999.0,yes,yes,no,300234061665210,SVP-B,EU,unknown,North
2014-10-02T07:00:28Z,1412233229,2014,7,0,275.292,275.25,76.4002,37.967,1012.9,3.49,-999.0,yes,yes,no,300234061665210,SVP-B,EU,unknown,North
2014-10-02T07:59:31Z,1412236771,2014,8,0,275.333,275.25,76.4002,37.967,1012.5,2.97,-999.0,yes,yes,no,300234061665210,SVP-B,EU,unknown,North
2014-10-02T09:00:00Z,1412240400,2014,9,0,275.375,275.375,76.4464,38.0736,1011.7,2.8,-999.0,yes,yes,no,300234061665210,SVP-B,EU,unknown,North
2014-10-02T10:00:28Z,1412244029,2014,10,0,275.417,275.375,76.4464,38.0736,1011.1,2.82,-999.0,yes,yes,no,300234061665210,SVP-B,EU,unknown,North
2014-10-02T10:59:31Z,1412247571,2014,11,0,275.458,275.375,76.4464,38.0736,1010.5,3.16,-999.0,yes,yes,no,300234061665210,SVP-B,EU,unknown,North
2014-10-02T12:00:00Z,1412251200,2014,12,0,275.5,275.5,76.5008,38.1976,1010.1,3.24,-999.0,yes,yes,no,300234061665210,SVP-B,EU,unknown,North
2014-10-02T13:00:28Z,1412254829,2014,13,0,275.542,275.5,76.5008,38.1976,1010.0,2.68,-999.0,yes,yes,no,300234061665210,SVP-B,EU,unknown,North
2014-10-02T13:59:31Z,1412258371,2014,14,0,275.583,275.5,76.5008,38.1976,1009.9,2.62,-999.0,yes,yes,no,300234061665210,SVP-B,EU,unknown,North
2014-10-02T15:00:00Z,1412262000,2014,15,0,275.625,275.625,76.5452,38.3564,1009.7,2.63,-999.0,yes,yes,no,300234061665210,SVP-B,EU,unknown,North
2014-10-02T16:00:28Z,1412265629,2014,16,0,275.667,275.625,76.5452,38.3564,1009.3,2.74,-999.0,yes,yes,no,300234061665210,SVP-B,EU,unknown,North
2014-10-02T16:59:31Z,1412269171,2014,17,0,275.708,275.625,76.5452,38.3564,1008.9,2.85,-999.0,yes,yes,no,300234061665210,SVP-B,EU,unknown,North
2014-10-02T18:00:00Z,1412272800,2014,18,0,275.75,275.75,76.5866,38.4842,1008.3,2.93,-999.0,yes,yes,no,300234061665210,SVP-B,EU,unknown,North
2014-10-02T19:00:28Z,1412276429,2014,19,0,275.792,275.75,76.5866,38.4842,1007.8,2.8,-999.0,yes,yes,no,300234061665210,SVP-B,EU,unknown,North
2014-10-02T19:59:31Z,1412279971,2014,20,0,275.833,275.75,76.5866,38.4842,1007.3,2.19,-999.0,yes,yes,no,300234061665210,SVP-B,EU,unknown,North
2014-10-02T21:00:00Z,1412283600,2014,21,0,275.875,275.875,76.6368,38.5858,1007.5,2.04,-999.0,yes,yes,no,300234061665210,SVP-B,EU,unknown,North
2014-10-02T22:00:28Z,1412287229,2014,22,0,275.917,275.875,76.6368,38.5858,1007.7,2.02,-999.0,yes,yes,no,300234061665210,SVP-B,EU,unknown,North
2014-10-02T22:59:31Z,1412290771,2014,23,0,275.958,275.875,76.6368,38.5858,1008.7,2.02,-999.0,yes,yes,no,300234061665210,SVP-B,EU,unknown,North
2014-10-03T00:00:00Z,1412294400,2014,0,0,276.0,276.0,76.6602,38.7858,1009.8,2.02,-999.0,yes,yes,no,300234061665210,SVP-B,EU,unknown,North
2014-10-03T01:00:28Z,1412298029,2014,1,0,276.042,276.0,76.6602,38.7858,1011.2,2.04,-999.0,yes,yes,no,300234061665210,SVP-B,EU,unknown,North
2014-10-03T01:59:31Z,1412301571,2014,2,0,276.083,276.0,76.6602,38.7858,1012.2,2.03,-999.0,yes,yes,no,300234061665210,SVP-B,EU,unknown,North
2014-10-03T03:00:00Z,1412305200,2014,3,0,276.125,276.125,76.6522,38.9984,1013.2,2.0,-999.0,yes,yes,no,300234061665210,SVP-B,EU,unknown,North
2014-10-03T04:00:28Z,1412308829,2014,4,0,276.167,276.125,76.6522,38.9984,1014.3,1.99,-999.0,yes,yes,no,300234061665210,SVP-B,EU,unknown,North
2014-10-03T04:59:31Z,1412312371,2014,5,0,276.208,276.125,76.6522,38.9984,1015.6,2.0,-999.0,yes,yes,no,300234061665210,SVP-B,EU,unknown,North
2014-10-03T06:00:00Z,1412316000,2014,6,0,276.25,276.25,76.65,39.172,1016.8,1.99,-999.0,yes,yes,no,300234061665210,SVP-B,EU,unknown,North
2014-10-03T07:00:28Z,1412319629,2014,7,0,276.292,276.25,76.65,39.172,1018.0,1.97,-999.0,yes,yes,no,300234061665210,SVP-B,EU,unknown,North
2014-10-03T07:59:31Z,1412323171,2014,8,0,276.333,276.25,76.65,39.172,1018.5,1.96,-999.0,yes,yes,no,300234061665210,SVP-B,EU,unknown,North
2014-10-03T09:00:00Z,1412326800,2014,9,0,276.375,276.375,76.662,39.3282,1019.3,1.99,-999.0,yes,yes,no,300234061665210,SVP-B,EU,unknown,North
2014-10-03T10:00:28Z,1412330429,2014,10,0,276.417,276.375,76.662,39.3282,1020.0,2.01,-999.0,yes,yes,no,300234061665210,SVP-B,EU,unknown,North
2014-10-03T10:59:31Z,1412333971,2014,11,0,276.458,276.375,76.662,39.3282,1020.7,2.04,-999.0,yes,yes,no,300234061665210,SVP-B,EU,unknown,North
2014-10-03T12:00:00Z,1412337600,2014,12,0,276.5,276.5,76.684,39.4958,1021.0,2.05,-999.0,yes,yes,no,300234061665210,SVP-B,EU,unknown,North
2014-10-03T13:00:28Z,1412341229,2014,13,0,276.542,276.5,76.684,39.4958,1021.4,2.03,-999.0,yes,yes,no,300234061665210,SVP-B,EU,unknown,North
2014-10-03T13:59:31Z,1412344771,2014,14,0,276.583,276.5,76.684,39.4958,1021.6,2.02,-999.0,yes,yes,no,300234061665210,SVP-B,EU,unknown,North
2014-10-03T15:00:00Z,1412348400,2014,15,0,276.625,276.625,76.6976,39.6924,1022.0,2.03,-999.0,yes,yes,no,300234061665210,SVP-B,EU,unknown,North
2014-10-03T16:00:28Z,1412352029,2014,16,0,276.667,276.625,76.6976,39.6924,1022.3,2.03,-999.0,yes,yes,no,300234061665210,SVP-B,EU,unknown,North
2014-10-03T16:59:31Z,1412355571,2014,17,0,276.708,276.625,76.6976,39.6924,1022.4,2.04,-999.0,yes,yes,no,300234061665210,SVP-B,EU,unknown,North
2014-10-03T18:00:00Z,1412359200,2014,18,0,276.75,276.75,76.6964,39.852,1022.9,2.04,-999.0,yes,yes,no,300234061665210,SVP-B,EU,unknown,North
2014-10-03T19:00:28Z,1412362829,2014,19,0,276.792,276.75,76.6964,39.852,1023.4,2.02,-999.0,yes,yes,no,300234061665210,SVP-B,EU,unknown,North
2014-10-03T19:59:31Z,1412366371,2014,20,0,276.833,276.75,76.6964,39.852,1023.8,2.04,-999.0,yes,yes,no,300234061665210,SVP-B,EU,unknown,North
2014-10-03T21:00:00Z,1412370000,2014,21,0,276.875,276.875,76.696,39.9422,1024.2,2.03,-999.0,yes,yes,no,300234061665210,SVP-B,EU,unknown,North
2014-10-03T22:00:28Z,1412373629,2014,22,0,276.917,276.875,76.696,39.9422,1024.6,2.04,-999.0,yes,yes,no,300234061665210,SVP-B,EU,unknown,North
2014-10-03T22:59:31Z,1412377171,2014,23,0,276.958,276.875,76.696,39.9422,1024.9,2.06,-999.0,yes,yes,no,300234061665210,SVP-B,EU,unknown,North
2014-10-04T00:00:00Z,1412380800,2014,0,0,277.0,277.0,76.7024,40.0378,1025.3,2.06,-999.0,yes,yes,no,300234061665210,SVP-B,EU,unknown,North
2014-10-04T01:00:28Z,1412384429,2014,1,0,277.042,277.0,76.7024,40.0378,1025.5,2.07,-999.0,yes,yes,no,300234061665210,SVP-B,EU,unknown,North
2014-10-04T01:59:31Z,1412387971,2014,2,0,277.083,277.0,76.7024,40.0378,1025.9,2.07,-999.0,yes,yes,no,300234061665210,SVP-B,EU,unknown,North
2014-10-04T03:00:00Z,1412391600,2014,3,0,277.125,277.125,76.6986,40.1386,1026.2,2.09,-999.0,yes,yes,no,300234061665210,SVP-B,EU,unknown,North
2014-10-04T04:00:28Z,1412395229,2014,4,0,277.167,277.125,76.6986,40.1386,1026.3,2.16,-999.0,yes,yes,no,300234061665210,SVP-B,EU,unknown,North
2014-10-04T04:59:31Z,1412398771,2014,5,0,277.208,277.125,76.6986,40.1386,1026.4,2.19,-999.0,yes,yes,no,300234061665210,SVP-B,EU,unknown,North
2014-10-04T06:00:00Z,1412402400,2014,6,0,277.25,277.25,76.6934,40.195,1026.5,2.19,-999.0,yes,yes,no,300234061665210,SVP-B,EU,unknown,North
2014-10-04T07:00:28Z,1412406029,2014,7,0,277.292,277.25,76.6934,40.195,1026.4,2.13,-999.0,yes,yes,no,300234061665210,SVP-B,EU,unknown,North
2014-10-04T07:59:31Z,1412409571,2014,8,0,277.333,277.25,76.6934,40.195,1026.8,2.03,-999.0,yes,yes,no,300234061665210,SVP-B,EU,unknown,North
2014-10-04T09:00:00Z,1412413200,2014,9,0,277.375,277.375,76.6918,40.0808,1027.1,2.05,-999.0,yes,yes,no,300234061665210,SVP-B,EU,unknown,North
2014-10-04T10:00:28Z,1412416829,2014,10,0,277.417,277.375,76.6918,40.0808,1026.9,2.04,-999.0,yes,yes,no,300234061665210,SVP-B,EU,unknown,North
2014-10-04T10:59:31Z,1412420371,2014,11,0,277.458,277.375,76.6918,40.0808,1026.4,2.02,-999.0,yes,yes,no,300234061665210,SVP-B,EU,unknown,North
2014-10-04T12:00:00Z,1412424000,2014,12,0,277.5,277.5,76.7262,39.9848,1026.3,2.03,-999.0,yes,yes,no,300234061665210,SVP-B,EU,unknown,North
2014-10-04T13:00:28Z,1412427629,2014,13,0,277.542,277.5,76.7262,39.9848,1025.9,1.99,-999.0,yes,yes,no,300234061665210,SVP-B,EU,unknown,North
2014-10-04T13:59:31Z,1412431171,2014,14,0,277.583,277.5,76.7262,39.9848,1025.6,1.97,-999.0,yes,yes,no,300234061665210,SVP-B,EU,unknown,North
2014-10-04T15:00:00Z,1412434800,2014,15,0,277.625,277.625,76.7652,39.9834,1025.1,1.97,-999.0,yes,yes,no,300234061665210,SVP-B,EU,unknown,North
2014-10-04T16:00:28Z,1412438429,2014,16,0,277.667,277.625,76.7652,39.9834,1024.6,1.96,-999.0,yes,yes,no,300234061665210,SVP-B,EU,unknown,North
2014-10-04T16:59:31Z,1412441971,2014,17,0,277.708,277.625,76.7652,39.9834,1024.3,1.91,-999.0,yes,yes,no,300234061665210,SVP-B,EU,unknown,North
2014-10-04T18:00:00Z,1412445600,2014,18,0,277.75,277.75,76.7958,40.0578,1023.9,1.87,-999.0,yes,yes,no,300234061665210,SVP-B,EU,unknown,North
2014-10-04T19:00:28Z,1412449229,2014,19,0,277.792,277.75,76.7958,40.0578,1023.1,1.86,-999.0,yes,yes,no,300234061665210,SVP-B,EU,unknown,North
2014-10-04T19:59:31Z,1412452771,2014,20,0,277.833,277.75,76.7958,40.0578,1023.0,1.88,-999.0,yes,yes,no,300234061665210,SVP-B,EU,unknown,North
2014-10-04T21:00:00Z,1412456400,2014,21,0,277.875,277.875,76.819,40.0884,1023.3,1.88,-999.0,yes,yes,no,300234061665210,SVP-B,EU,unknown,North
2014-10-04T22:00:28Z,1412460029,2014,22,0,277.917,277.875,76.819,40.0884,1022.6,1.87,-999.0,yes,yes,no,300234061665210,SVP-B,EU,unknown,North
2014-10-04T22:59:31Z,1412463571,2014,23,0,277.958,277.875,76.819,40.0884,1022.6,1.86,-999.0,yes,yes,no,300234061665210,SVP-B,EU,unknown,North
2014-10-05T00:00:00Z,1412467200,2014,0,0,278.0,278.0,76.853,40.0968,1022.0,1.88,-999.0,yes,yes,no,300234061665210,SVP-B,EU,unknown,North
2014-10-05T01:00:28Z,1412470829,2014,1,0,278.042,278.0,76.853,40.0968,1022.0,1.91,-999.0,yes,yes,no,300234061665210,SVP-B,EU,unknown,North
2014-10-05T01:59:31Z,1412474371,2014,2,0,278.083,278.0,76.853,40.0968,1022.0,1.93,-999.0,yes,yes,no,300234061665210,SVP-B,EU,unknown,North
2014-10-05T03:00:00Z,1412478000,2014,3,0,278.125,278.125,76.8926,40.2024,1022.0,1.88,-999.0,yes,yes,no,300234061665210,SVP-B,EU,unknown,North
2014-10-05T04:00:28Z,1412481629,2014,4,0,278.167,278.125,76.8926,40.2024,1022.3,1.86,-999.0,yes,yes,no,300234061665210,SVP-B,EU,unknown,North
2014-10-05T04:59:31Z,1412485171,2014,5,0,278.208,278.125,76.8926,40.2024,1022.4,1.83,-999.0,yes,yes,no,300234061665210,SVP-B,EU,unknown,North
2014-10-05T06:00:00Z,1412488800,2014,6,0,278.25,278.25,76.894,40.3244,1022.8,1.82,-999.0,yes,yes,no,300234061665210,SVP-B,EU,unknown,North
2014-10-05T07:00:28Z,1412492429,2014,7,0,278.292,278.25,76.894,40.3244,1023.1,1.79,-999.0,yes,yes,no,300234061665210,SVP-B,EU,unknown,North
2014-10-05T07:59:31Z,1412495971,2014,8,0,278.333,278.25,76.894,40.3244,1023.4,1.78,-999.0,yes,yes,no,300234061665210,SVP-B,EU,unknown,North
2014-10-05T09:00:00Z,1412499600,2014,9,0,278.375,278.375,76.8812,40.3038,1023.6,1.79,-999.0,yes,yes,no,300234061665210,SVP-B,EU,unknown,North
2014-10-05T10:00:28Z,1412503229,2014,10,0,278.417,278.375,76.8812,40.3038,1023.8,1.78,-999.0,yes,yes,no,300234061665210,SVP-B,EU,unknown,North
2014-10-05T10:59:31Z,1412506771,2014,11,0,278.458,278.375,76.8812,40.3038,1024.0,1.79,-999.0,yes,yes,no,300234061665210,SVP-B,EU,unknown,North
2014-10-05T12:00:00Z,1412510400,2014,12,0,278.5,278.5,76.9014,40.2014,1023.6,1.78,-999.0,yes,yes,no,300234061665210,SVP-B,EU,unknown,North
2014-10-05T13:00:28Z,1412514029,2014,13,0,278.542,278.5,76.9014,40.2014,1023.3,1.78,-999.0,yes,yes,no,300234061665210,SVP-B,EU,unknown,North
2014-10-05T13:59:31Z,1412517571,2014,14,0,278.583,278.5,76.9014,40.2014,1023.1,1.82,-999.0,yes,yes,no,300234061665210,SVP-B,EU,unknown,North
2014-10-05T15:00:00Z,1412521200,2014,15,0,278.625,278.625,76.9416,40.1932,1022.7,1.79,-999.0,yes,yes,no,300234061665210,SVP-B,EU,unknown,North
2014-10-05T16:00:28Z,1412524829,2014,16,0,278.667,278.625,76.9416,40.1932,1022.3,1.79,-999.0,yes,yes,no,300234061665210,SVP-B,EU,unknown,North
2014-10-05T16:59:31Z,1412528371,2014,17,0,278.708,278.625,76.9416,40.1932,1021.3,1.8,-999.0,yes,yes,no,300234061665210,SVP-B,EU,unknown,North
2014-10-05T18:00:00Z,1412532000,2014,18,0,278.75,278.75,76.9708,40.1908,1020.7,1.73,-999.0,yes,yes,no,300234061665210,SVP-B,EU,unknown,North
2014-10-05T19:00:28Z,1412535629,2014,19,0,278.792,278.75,76.9708,40.1908,1020.4,1.75,-999.0,yes,yes,no,300234061665210,SVP-B,EU,unknown,North
2014-10-05T19:59:31Z,1412539171,2014,20,0,278.833,278.75,76.9708,40.1908,1019.8,1.65,-999.0,yes,yes,no,300234061665210,SVP-B,EU,unknown,North
2014-10-05T21:00:00Z,1412542800,2014,21,0,278.875,278.875,76.9986,40.141,1018.7,1.34,-999.0,yes,yes,no,300234061665210,SVP-B,EU,unknown,North
2014-10-05T22:00:28Z,1412546429,2014,22,0,278.917,278.875,76.9986,40.141,1018.1,1.07,-999.0,yes,yes,no,300234061665210,SVP-B,EU,unknown,North
2014-10-05T22:59:31Z,1412549971,2014,23,0,278.958,278.875,76.9986,40.141,1017.5,1.05,-999.0,yes,yes,no,300234061665210,SVP-B,EU,unknown,North
2014-10-06T00:00:00Z,1412553600,2014,0,0,279.0,279.0,77.0372,40.1466,1016.7,1.05,-999.0,yes,yes,no,300234061665210,SVP-B,EU,unknown,North
2014-10-06T01:00:28Z,1412557229,2014,1,0,279.042,279.0,77.0372,40.1466,1016.0,1.13,-999.0,yes,yes,no,300234061665210,SVP-B,EU,unknown,North
2014-10-06T01:59:31Z,1412560771,2014,2,0,279.083,279.0,77.0372,40.1466,1015.4,0.86,-999.0,yes,yes,no,300234061665210,SVP-B,EU,unknown,North
2014-10-06T03:00:00Z,1412564400,2014,3,0,279.125,279.125,77.076,40.2382,1015.0,0.74,-999.0,yes,yes,no,300234061665210,SVP-B,EU,unknown,North
2014-10-06T04:00:28Z,1412568029,2014,4,0,279.167,279.125,77.076,40.2382,1015.1,0.72,-999.0,yes,yes,no,300234061665210,SVP-B,EU,unknown,North
2014-10-06T04:59:31Z,1412571571,2014,5,0,279.208,279.125,77.076,40.2382,1015.3,0.72,-999.0,yes,yes,no,300234061665210,SVP-B,EU,unknown,North
2014-10-06T06:00:00Z,1412575200,2014,6,0,279.25,279.25,77.0622,40.4488,1016.5,0.73,-999.0,yes,yes,no,300234061665210,SVP-B,EU,unknown,North
2014-10-06T07:00:28Z,1412578829,2014,7,0,279.292,279.25,77.0622,40.4488,1017.6,0.72,-999.0,yes,yes,no,300234061665210,SVP-B,EU,unknown,North
2014-10-06T07:59:31Z,1412582371,2014,8,0,279.333,279.25,77.0622,40.4488,1018.4,0.88,-999.0,yes,yes,no,300234061665210,SVP-B,EU,unknown,North
2014-10-06T09:00:00Z,1412586000,2014,9,0,279.375,279.375,76.9984,40.5542,1020.0,1.23,-999.0,yes,yes,no,300234061665210,SVP-B,EU,unknown,North
2014-10-06T10:00:28Z,1412589629,2014,10,0,279.417,279.375,76.9984,40.5542,1021.2,1.42,-999.0,yes,yes,no,300234061665210,SVP-B,EU,unknown,North
2014-10-06T10:59:31Z,1412593171,2014,11,0,279.458,279.375,76.9984,40.5542,1022.1,1.63,-999.0,yes,yes,no,300234061665210,SVP-B,EU,unknown,North
2014-10-06T12:00:00Z,1412596800,2014,12,0,279.5,279.5,76.945,40.5264,1022.8,1.78,-999.0,yes,yes,no,300234061665210,SVP-B,EU,unknown,North
2014-10-06T13:00:28Z,1412600429,2014,13,0,279.542,279.5,76.945,40.5264,1023.2,1.8,-999.0,yes,yes,no,300234061665210,SVP-B,EU,unknown,North
2014-10-06T13:59:31Z,1412603971,2014,14,0,279.583,279.5,76.945,40.5264,1023.7,1.82,-999.0,yes,yes,no,300234061665210,SVP-B,EU,unknown,North
2014-10-06T15:00:00Z,1412607600,2014,15,0,279.625,279.625,76.9438,40.562,1024.1,1.81,-999.0,yes,yes,no,300234061665210,SVP-B,EU,unknown,North
2014-10-06T16:00:28Z,1412611229,2014,16,0,279.667,279.625,76.9438,40.562,1024.3,1.76,-999.0,yes,yes,no,300234061665210,SVP-B,EU,unknown,North
2014-10-06T16:59:31Z,1412614771,2014,17,0,279.708,279.625,76.9438,40.562,1024.6,1.66,-999.0,yes,yes,no,300234061665210,SVP-B,EU,unknown,North
2014-10-06T18:00:00Z,1412618400,2014,18,0,279.75,279.75,76.9388,40.7802,1024.7,1.68,-999.0,yes,yes,no,300234061665210,SVP-B,EU,unknown,North
2014-10-06T19:00:28Z,1412622029,2014,19,0,279.792,279.75,76.9388,40.7802,1024.9,1.47,-999.0,yes,yes,no,300234061665210,SVP-B,EU,unknown,North
2014-10-06T19:59:31Z,1412625571,2014,20,0,279.833,279.75,76.9388,40.7802,1025.3,1.37,-999.0,yes,yes,no,300234061665210,SVP-B,EU,unknown,North
2014-10-06T21:00:00Z,1412629200,2014,21,0,279.875,279.875,76.8912,40.9792,1025.6,1.22,-999.0,yes,yes,no,300234061665210,SVP-B,EU,unknown,North
2014-10-06T22:00:28Z,1412632829,2014,22,0,279.917,279.875,76.8912,40.9792,1025.8,1.12,-999.0,yes,yes,no,300234061665210,SVP-B,EU,unknown,North
2014-10-06T22:59:31Z,1412636371,2014,23,0,279.958,279.875,76.8912,40.9792,1025.9,0.98,-999.0,yes,yes,no,300234061665210,SVP-B,EU,unknown,North
2014-10-07T00:00:00Z,1412640000,2014,0,0,280.0,280.0,76.8542,41.0208,1025.7,0.73,-999.0,yes,yes,no,300234061665210,SVP-B,EU,unknown,North
2014-10-07T01:00:28Z,1412643629,2014,1,0,280.042,280.0,76.8542,41.0208,1025.6,0.73,-999.0,yes,yes,no,300234061665210,SVP-B,EU,unknown,North
2014-10-07T01:59:31Z,1412647171,2014,2,0,280.083,280.0,76.8542,41.0208,1025.5,0.79,-999.0,yes,yes,no,300234061665210,SVP-B,EU,unknown,North
2014-10-07T03:00:00Z,1412650800,2014,3,0,280.125,280.125,76.8372,41.12,1025.3,0.81,-999.0,yes,yes,no,300234061665210,SVP-B,EU,unknown,North
2014-10-07T04:00:28Z,1412654429,2014,4,0,280.167,280.125,76.8372,41.12,1025.0,0.87,-999.0,yes,yes,no,300234061665210,SVP-B,EU,unknown,North
2014-10-07T04:59:31Z,1412657971,2014,5,0,280.208,280.125,76.8372,41.12,1024.9,0.71,-999.0,yes,yes,no,300234061665210,SVP-B,EU,unknown,North
2014-10-07T06:00:00Z,1412661600,2014,6,0,280.25,280.25,76.8034,41.2844,1024.9,0.44,-999.0,yes,yes,no,300234061665210,SVP-B,EU,unknown,North
2014-10-07T07:00:28Z,1412665229,2014,7,0,280.292,280.25,76.8034,41.2844,1024.7,0.33,-999.0,yes,yes,no,300234061665210,SVP-B,EU,unknown,North
2014-10-07T07:59:31Z,1412668771,2014,8,0,280.333,280.25,76.8034,41.2844,1024.8,0.42,-999.0,yes,yes,no,300234061665210,SVP-B,EU,unknown,North
2014-10-07T09:00:00Z,1412672400,2014,9,0,280.375,280.375,76.749,41.4364,1024.6,0.48,-999.0,yes,yes,no,300234061665210,SVP-B,EU,unknown,North
2014-10-07T10:00:28Z,1412676029,2014,10,0,280.417,280.375,76.749,41.4364,1024.3,0.68,-999.0,yes,yes,no,300234061665210,SVP-B,EU,unknown,North
2014-10-07T10:59:31Z,1412679571,2014,11,0,280.458,280.375,76.749,41.4364,1023.8,1.04,-999.0,yes,yes,no,300234061665210,SVP-B,EU,unknown,North
2014-10-07T12:00:00Z,1412683200,2014,12,0,280.5,280.5,76.6926,41.5554,1023.2,1.21,-999.0,yes,yes,no,300234061665210,SVP-B,EU,unknown,North
2014-10-07T13:00:28Z,1412686829,2014,13,0,280.542,280.5,76.6926,41.5554,1022.5,1.18,-999.0,yes,yes,no,300234061665210,SVP-B,EU,unknown,North
2014-10-07T13:59:31Z,1412690371,2014,14,0,280.583,280.5,76.6926,41.5554,1021.7,1.23,-999.0,yes,yes,no,300234061665210,SVP-B,EU,unknown,North
2014-10-07T15:00:00Z,1412694000,2014,15,0,280.625,280.625,76.6474,41.764,1020.7,1.27,-999.0,yes,yes,no,300234061665210,SVP-B,EU,unknown,North
2014-10-07T16:00:28Z,1412697629,2014,16,0,280.667,280.625,76.6474,41.764,1019.7,1.41,-999.0,yes,yes,no,300234061665210,SVP-B,EU,unknown,North
2014-10-07T16:59:31Z,1412701171,2014,17,0,280.708,280.625,76.6474,41.764,1018.7,1.49,-999.0,yes,yes,no,300234061665210,SVP-B,EU,unknown,North
2014-10-07T18:00:00Z,1412704800,2014,18,0,280.75,280.75,76.5978,41.9506,1018.3,1.54,-999.0,yes,yes,no,300234061665210,SVP-B,EU,unknown,North
2014-10-07T19:00:28Z,1412708429,2014,19,0,280.792,280.75,76.5978,41.9506,1017.8,1.68,-999.0,yes,yes,no,300234061665210,SVP-B,EU,unknown,North
2014-10-07T19:59:31Z,1412711971,2014,20,0,280.833,280.75,76.5978,41.9506,1017.3,1.77,-999.0,yes,yes,no,300234061665210,SVP-B,EU,unknown,North
2014-10-07T21:00:00Z,1412715600,2014,21,0,280.875,280.875,76.5506,42.0114,1017.0,1.88,-999.0,yes,yes,no,300234061665210,SVP-B,EU,unknown,North
2014-10-07T22:00:28Z,1412719229,2014,22,0,280.917,280.875,76.5506,42.0114,1016.8,1.91,-999.0,yes,yes,no,300234061665210,SVP-B,EU,unknown,North
2014-10-07T22:59:31Z,1412722771,2014,23,0,280.958,280.875,76.5506,42.0114,1016.5,1.98,-999.0,yes,yes,no,300234061665210,SVP-B,EU,unknown,North
2014-10-08T00:00:00Z,1412726400,2014,0,0,281.0,281.0,76.5116,42.015,1017.1,2.17,-999.0,yes,yes,no,300234061665210,SVP-B,EU,unknown,North
2014-10-08T01:00:28Z,1412730029,2014,1,0,281.042,281.0,76.5116,42.015,1018.1,2.3,-999.0,yes,yes,no,300234061665210,SVP-B,EU,unknown,North
2014-10-08T01:59:31Z,1412733571,2014,2,0,281.083,281.0,76.5116,42.015,1019.0,2.28,-999.0,yes,yes,no,300234061665210,SVP-B,EU,unknown,North
2014-10-08T03:00:00Z,1412737200,2014,3,0,281.125,281.125,76.4856,41.95,1019.7,2.29,-999.0,yes,yes,no,300234061665210,SVP-B,EU,unknown,North
2014-10-08T04:00:28Z,1412740829,2014,4,0,281.167,281.125,76.4856,41.95,1020.2,2.35,-999.0,yes,yes,no,300234061665210,SVP-B,EU,unknown,North
2014-10-08T04:59:31Z,1412744371,2014,5,0,281.208,281.125,76.4856,41.95,1020.7,2.4,-999.0,yes,yes,no,300234061665210,SVP-B,EU,unknown,North
2014-10-08T06:00:00Z,1412748000,2014,6,0,281.25,281.25,76.4568,41.8868,1021.4,2.43,-999.0,yes,yes,no,300234061665210,SVP-B,EU,unknown,North
2014-10-08T07:00:28Z,1412751629,2014,7,0,281.292,281.25,76.4568,41.8868,1022.1,2.42,-999.0,yes,yes,no,300234061665210,SVP-B,EU,unknown,North
2014-10-08T07:59:31Z,1412755171,2014,8,0,281.333,281.25,76.4568,41.8868,1024.7,2.37,-999.0,yes,yes,no,300234061665210,SVP-B,EU,unknown,North
2014-10-08T09:00:00Z,1412758800,2014,9,0,281.375,281.375,76.449,41.7868,1025.4,2.33,-999.0,yes,yes,no,300234061665210,SVP-B,EU,unknown,North
2014-10-08T10:00:28Z,1412762429,2014,10,0,281.417,281.375,76.449,41.7868,1026.1,2.33,-999.0,yes,yes,no,300234061665210,SVP-B,EU,unknown,North
2014-10-08T10:59:31Z,1412765971,2014,11,0,281.458,281.375,76.449,41.7868,1025.2,2.33,-999.0,yes,yes,no,300234061665210,SVP-B,EU,unknown,North
2014-10-08T12:00:00Z,1412769600,2014,12,0,281.5,281.5,76.452,41.7144,1025.6,2.37,-999.0,yes,yes,no,300234061665210,SVP-B,EU,unknown,North
2014-10-08T13:00:28Z,1412773229,2014,13,0,281.542,281.5,76.452,41.7144,1025.9,2.38,-999.0,yes,yes,no,300234061665210,SVP-B,EU,unknown,North
2014-10-08T13:59:31Z,1412776771,2014,14,0,281.583,281.5,76.452,41.7144,1026.1,2.36,-999.0,yes,yes,no,300234061665210,SVP-B,EU,unknown,North
2014-10-08T15:00:00Z,1412780400,2014,15,0,281.625,281.625,76.4344,41.6576,1026.3,2.37,-999.0,yes,yes,no,300234061665210,SVP-B,EU,unknown,North
2014-10-08T16:00:28Z,1412784029,2014,16,0,281.667,281.625,76.4344,41.6576,1026.5,2.38,-999.0,yes,yes,no,300234061665210,SVP-B,EU,unknown,North